Data supplied by UK-AIR on 21/3/2019
All Data GMT hour ending 
Status: R =Ratified P=Provisional,P*=As supplied
,,Newcastle Cradlewell Roadside,,,,,,,,,,,,,,,,,,,,,,,
Date,time,"PM<sub>10</sub> particulate matter (Hourly measured)",status,unit,"Nitric oxide",status,unit,"Nitrogen dioxide",status,unit,"Nitrogen oxides as nitrogen dioxide",status,unit
 
01-01-2018,01:00,,,,7.16564,R,ugm-3,17.86228,R,ugm-3,28.84944,R,ugm-3
01-01-2018,02:00,,,,17.28711,R,ugm-3,36.47562,R,ugm-3,62.98216,R,ugm-3
01-01-2018,03:00,,,,22.73972,R,ugm-3,41.82725,R,ugm-3,76.69433,R,ugm-3
01-01-2018,04:00,,,,21.49693,R,ugm-3,43.05505,R,ugm-3,76.01654,R,ugm-3
01-01-2018,05:00,,,,32.01027,R,ugm-3,57.01818,R,ugm-3,106.09991,R,ugm-3
01-01-2018,06:00,,,,8.43083,R,ugm-3,28.36585,R,ugm-3,41.29294,R,ugm-3
01-01-2018,07:00,,,,7.02009,R,ugm-3,25.15878,R,ugm-3,35.92277,R,ugm-3
01-01-2018,08:00,,,,7.69187,R,ugm-3,27.51768,R,ugm-3,39.31171,R,ugm-3
01-01-2018,09:00,,,,19.11211,R,ugm-3,44.88690,R,ugm-3,74.19173,R,ugm-3
01-01-2018,10:00,,,,15.41733,R,ugm-3,40.17678,R,ugm-3,63.81636,R,ugm-3
01-01-2018,11:00,,,,17.56702,R,ugm-3,42.25080,R,ugm-3,69.18653,R,ugm-3
01-01-2018,12:00,,,,22.67254,R,ugm-3,49.64661,R,ugm-3,84.41069,R,ugm-3
01-01-2018,13:00,,,,44.84125,R,ugm-3,66.90628,R,ugm-3,135.66190,R,ugm-3
01-01-2018,14:00,,,,55.58971,R,ugm-3,67.68306,R,ugm-3,152.91942,R,ugm-3
01-01-2018,15:00,,,,75.30643,R,ugm-3,83.59291,R,ugm-3,199.06115,R,ugm-3
01-01-2018,16:00,,,,152.76254,R,ugm-3,122.80529,R,ugm-3,357.03792,R,ugm-3
01-01-2018,17:00,,,,110.37329,R,ugm-3,107.24873,R,ugm-3,276.48541,R,ugm-3
01-01-2018,18:00,,,,15.95475,R,ugm-3,44.67078,R,ugm-3,69.13439,R,ugm-3
01-01-2018,19:00,,,,2.25046,R,ugm-3,16.67444,R,ugm-3,20.12509,R,ugm-3
01-01-2018,20:00,,,,4.83681,R,ugm-3,15.62846,R,ugm-3,23.04480,R,ugm-3
01-01-2018,21:00,,,,2.85506,R,ugm-3,14.65251,R,ugm-3,19.03021,R,ugm-3
01-01-2018,22:00,,,,2.50798,R,ugm-3,12.28237,R,ugm-3,16.12788,R,ugm-3
01-01-2018,23:00,,,,6.65061,R,ugm-3,16.86192,R,ugm-3,27.05939,R,ugm-3
01-01-2018,24:00,,,,1.51150,R,ugm-3,5.97227,R,ugm-3,8.28987,R,ugm-3
02-01-2018,01:00,,,,0.80615,R,ugm-3,3.56443,R,ugm-3,4.80051,R,ugm-3
02-01-2018,02:00,,,,0.44786,R,ugm-3,2.72235,R,ugm-3,3.40906,R,ugm-3
02-01-2018,03:00,,,,1.24281,R,ugm-3,3.15579,R,ugm-3,5.06141,R,ugm-3
02-01-2018,04:00,,,,1.10845,R,ugm-3,3.72706,R,ugm-3,5.42666,R,ugm-3
02-01-2018,05:00,,,,5.60944,R,ugm-3,15.19281,R,ugm-3,23.79383,R,ugm-3
02-01-2018,06:00,,,,20.42238,R,ugm-3,48.52066,R,ugm-3,79.83454,R,ugm-3
02-01-2018,07:00,,,,95.39403,R,ugm-3,89.53009,R,ugm-3,235.79889,R,ugm-3
02-01-2018,08:00,,,,199.52131,R,ugm-3,118.44698,R,ugm-3,424.37539,R,ugm-3
02-01-2018,09:00,,,,197.70748,R,ugm-3,115.43623,R,ugm-3,418.58347,R,ugm-3
02-01-2018,10:00,,,,130.12551,R,ugm-3,97.58673,R,ugm-3,297.10973,R,ugm-3
02-01-2018,11:00,,,,62.37560,R,ugm-3,71.95911,R,ugm-3,167.60036,R,ugm-3
02-01-2018,12:00,,,,56.26232,R,ugm-3,62.65243,R,ugm-3,148.92012,R,ugm-3
02-01-2018,13:00,,,,35.57122,R,ugm-3,54.20017,R,ugm-3,108.74195,R,ugm-3
02-01-2018,14:00,,,,30.63357,R,ugm-3,54.83126,R,ugm-3,101.80209,R,ugm-3
02-01-2018,15:00,,,,50.88801,R,ugm-3,61.23973,R,ugm-3,139.26693,R,ugm-3
02-01-2018,16:00,,,,114.70796,R,ugm-3,88.30142,R,ugm-3,264.18451,R,ugm-3
02-01-2018,17:00,,,,251.75290,R,ugm-3,151.43251,R,ugm-3,537.44824,R,ugm-3
02-01-2018,18:00,,,,204.89562,R,ugm-3,128.83454,R,ugm-3,443.00345,R,ugm-3
02-01-2018,19:00,,,,256.75773,R,ugm-3,133.27048,R,ugm-3,526.96017,R,ugm-3
02-01-2018,20:00,,,,139.09390,R,ugm-3,108.15102,R,ugm-3,321.42535,R,ugm-3
02-01-2018,21:00,,,,34.66431,R,ugm-3,60.80870,R,ugm-3,113.95990,R,ugm-3
02-01-2018,22:00,,,,16.29088,R,ugm-3,28.66146,R,ugm-3,53.64047,R,ugm-3
02-01-2018,23:00,,,,10.91657,R,ugm-3,29.38812,R,ugm-3,46.12663,R,ugm-3
02-01-2018,24:00,,,,15.71986,R,ugm-3,32.19817,R,ugm-3,56.30162,R,ugm-3
03-01-2018,01:00,,,,4.65781,R,ugm-3,11.03116,R,ugm-3,18.17302,R,ugm-3
03-01-2018,02:00,,,,1.34360,R,ugm-3,6.50415,R,ugm-3,8.56430,R,ugm-3
03-01-2018,03:00,,,,0.94052,R,ugm-3,3.67558,R,ugm-3,5.11769,R,ugm-3
03-01-2018,04:00,,,,0.47026,R,ugm-3,2.04668,R,ugm-3,2.76773,R,ugm-3
03-01-2018,05:00,,,,0.26872,R,ugm-3,2.14681,R,ugm-3,2.55885,R,ugm-3
03-01-2018,06:00,,,,0.90693,R,ugm-3,2.63044,R,ugm-3,4.02104,R,ugm-3
03-01-2018,07:00,,,,2.72079,R,ugm-3,6.74245,R,ugm-3,10.91426,R,ugm-3
03-01-2018,08:00,,,,5.03849,R,ugm-3,17.60177,R,ugm-3,25.32735,R,ugm-3
03-01-2018,09:00,,,,5.34080,R,ugm-3,16.25047,R,ugm-3,24.43959,R,ugm-3
03-01-2018,10:00,,,,6.91953,R,ugm-3,18.16416,R,ugm-3,28.77396,R,ugm-3
03-01-2018,11:00,,,,11.95802,R,ugm-3,25.89610,R,ugm-3,44.23147,R,ugm-3
03-01-2018,12:00,,,,7.89364,R,ugm-3,17.29721,R,ugm-3,29.40061,R,ugm-3
03-01-2018,13:00,,,,9.97621,R,ugm-3,15.35728,R,ugm-3,30.65392,R,ugm-3
03-01-2018,14:00,,,,7.65851,R,ugm-3,13.27114,R,ugm-3,25.01402,R,ugm-3
03-01-2018,15:00,,,,8.69980,R,ugm-3,18.98551,R,ugm-3,32.32501,R,ugm-3
03-01-2018,16:00,,,,8.39749,R,ugm-3,18.09129,R,ugm-3,30.96725,R,ugm-3
03-01-2018,17:00,,,,13.93983,R,ugm-3,28.81060,R,ugm-3,50.18470,R,ugm-3
03-01-2018,18:00,,,,26.67042,R,ugm-3,43.96560,R,ugm-3,84.85967,R,ugm-3
03-01-2018,19:00,,,,21.93423,R,ugm-3,43.23778,R,ugm-3,76.86980,R,ugm-3
03-01-2018,20:00,,,,14.17496,R,ugm-3,21.60908,R,ugm-3,43.34371,R,ugm-3
03-01-2018,21:00,,,,3.42618,R,ugm-3,12.50186,R,ugm-3,17.75525,R,ugm-3
03-01-2018,22:00,,,,3.02310,R,ugm-3,11.76215,R,ugm-3,16.39750,R,ugm-3
03-01-2018,23:00,,,,3.15746,R,ugm-3,9.88505,R,ugm-3,14.72642,R,ugm-3
03-01-2018,24:00,,,,1.54514,R,ugm-3,7.55288,R,ugm-3,9.92205,R,ugm-3
04-01-2018,01:00,,,,1.38841,R,ugm-3,8.32379,R,ugm-3,10.45265,R,ugm-3
04-01-2018,02:00,,,,1.43319,R,ugm-3,6.65238,R,ugm-3,8.84991,R,ugm-3
04-01-2018,03:00,,,,1.61234,R,ugm-3,7.61458,R,ugm-3,10.08680,R,ugm-3
04-01-2018,04:00,,,,8.43120,R,ugm-3,24.64960,R,ugm-3,37.57726,R,ugm-3
04-01-2018,05:00,,,,18.49714,R,ugm-3,43.27359,R,ugm-3,71.63546,R,ugm-3
04-01-2018,06:00,,,,35.00124,R,ugm-3,60.37055,R,ugm-3,114.03836,R,ugm-3
04-01-2018,07:00,,,,140.97907,R,ugm-3,103.05890,R,ugm-3,319.22379,R,ugm-3
04-01-2018,08:00,,,,225.32466,R,ugm-3,131.72253,R,ugm-3,477.21553,R,ugm-3
04-01-2018,09:00,,,,242.35501,R,ugm-3,133.72731,R,ugm-3,505.33314,R,ugm-3
04-01-2018,10:00,,,,214.17263,R,ugm-3,130.00730,R,ugm-3,458.40076,R,ugm-3
04-01-2018,11:00,,,,141.11343,R,ugm-3,110.74463,R,ugm-3,327.11554,R,ugm-3
04-01-2018,12:00,,,,109.33688,R,ugm-3,91.94391,R,ugm-3,259.59145,R,ugm-3
04-01-2018,13:00,,,,112.39361,R,ugm-3,95.30553,R,ugm-3,267.63999,R,ugm-3
04-01-2018,14:00,,,,168.95991,R,ugm-3,118.16773,R,ugm-3,377.23597,R,ugm-3
04-01-2018,15:00,,,,135.90691,R,ugm-3,114.02415,R,ugm-3,322.41185,R,ugm-3
04-01-2018,16:00,,,,75.84721,R,ugm-3,96.04806,R,ugm-3,212.34549,R,ugm-3
04-01-2018,17:00,,,,4.56830,R,ugm-3,35.64217,R,ugm-3,42.64679,R,ugm-3
04-01-2018,18:00,,,,13.60413,R,ugm-3,39.24334,R,ugm-3,60.10271,R,ugm-3
04-01-2018,19:00,,,,10.81612,R,ugm-3,30.55694,R,ugm-3,47.14143,R,ugm-3
04-01-2018,20:00,,,,4.40035,R,ugm-3,20.53430,R,ugm-3,27.28141,R,ugm-3
04-01-2018,21:00,,,,3.99726,R,ugm-3,16.13509,R,ugm-3,22.26414,R,ugm-3
04-01-2018,22:00,,,,11.25280,R,ugm-3,22.10016,R,ugm-3,39.35421,R,ugm-3
04-01-2018,23:00,,,,5.10575,R,ugm-3,18.04160,R,ugm-3,25.87030,R,ugm-3
04-01-2018,24:00,,,,2.82160,R,ugm-3,10.30732,R,ugm-3,14.63370,R,ugm-3
05-01-2018,01:00,,,,1.20927,R,ugm-3,7.21203,R,ugm-3,9.06622,R,ugm-3
05-01-2018,02:00,,,,3.09037,R,ugm-3,9.69772,R,ugm-3,14.43621,R,ugm-3
05-01-2018,03:00,,,,1.81391,R,ugm-3,7.20899,R,ugm-3,9.99028,R,ugm-3
05-01-2018,04:00,,,,2.95600,R,ugm-3,9.38069,R,ugm-3,13.91316,R,ugm-3
05-01-2018,05:00,,,,1.38843,R,ugm-3,8.47162,R,ugm-3,10.60050,R,ugm-3
05-01-2018,06:00,,,,2.51932,R,ugm-3,12.92704,R,ugm-3,16.78995,R,ugm-3
05-01-2018,07:00,,,,35.80794,R,ugm-3,41.38899,R,ugm-3,96.29373,R,ugm-3
05-01-2018,08:00,,,,138.29388,R,ugm-3,104.24141,R,ugm-3,316.28906,R,ugm-3
05-01-2018,09:00,,,,57.47409,R,ugm-3,62.09460,R,ugm-3,150.22031,R,ugm-3
05-01-2018,10:00,,,,56.63432,R,ugm-3,68.50814,R,ugm-3,155.34621,R,ugm-3
05-01-2018,11:00,,,,64.99846,R,ugm-3,74.04239,R,ugm-3,173.70530,R,ugm-3
05-01-2018,12:00,,,,19.95302,R,ugm-3,42.42375,R,ugm-3,73.01795,R,ugm-3
05-01-2018,13:00,,,,9.60701,R,ugm-3,23.50451,R,ugm-3,38.23504,R,ugm-3
05-01-2018,14:00,,,,11.68965,R,ugm-3,26.16934,R,ugm-3,44.09322,R,ugm-3
05-01-2018,15:00,,,,10.41319,R,ugm-3,31.63099,R,ugm-3,47.59766,R,ugm-3
05-01-2018,16:00,,,,7.05410,R,ugm-3,23.07759,R,ugm-3,33.89372,R,ugm-3
05-01-2018,17:00,,,,19.95302,R,ugm-3,35.72870,R,ugm-3,66.32289,R,ugm-3
05-01-2018,18:00,,,,34.93457,R,ugm-3,48.74322,R,ugm-3,102.30882,R,ugm-3
05-01-2018,19:00,,,,14.10819,R,ugm-3,33.60195,R,ugm-3,55.23421,R,ugm-3
05-01-2018,20:00,,,,8.56569,R,ugm-3,31.11626,R,ugm-3,44.25013,R,ugm-3
05-01-2018,21:00,,,,2.38496,R,ugm-3,13.39459,R,ugm-3,17.05147,R,ugm-3
05-01-2018,22:00,,,,2.37376,R,ugm-3,7.58845,R,ugm-3,11.22817,R,ugm-3
05-01-2018,23:00,,,,2.78805,R,ugm-3,6.81374,R,ugm-3,11.08869,R,ugm-3
05-01-2018,24:00,,,,3.19114,R,ugm-3,6.66642,R,ugm-3,11.55943,R,ugm-3
06-01-2018,01:00,,,,2.86647,R,ugm-3,7.53993,R,ugm-3,11.93512,R,ugm-3
06-01-2018,02:00,,,,1.03014,R,ugm-3,4.07396,R,ugm-3,5.65348,R,ugm-3
06-01-2018,03:00,,,,0.77260,R,ugm-3,3.68363,R,ugm-3,4.86827,R,ugm-3
06-01-2018,04:00,,,,0.73901,R,ugm-3,3.31636,R,ugm-3,4.44950,R,ugm-3
06-01-2018,05:00,,,,0.47028,R,ugm-3,4.35657,R,ugm-3,5.07766,R,ugm-3
06-01-2018,06:00,,,,0.63824,R,ugm-3,3.94200,R,ugm-3,4.92062,R,ugm-3
06-01-2018,07:00,,,,0.80620,R,ugm-3,3.84151,R,ugm-3,5.07766,R,ugm-3
06-01-2018,08:00,,,,1.52281,R,ugm-3,6.11037,R,ugm-3,8.44532,R,ugm-3
06-01-2018,09:00,,,,2.04908,R,ugm-3,8.58386,R,ugm-3,11.72573,R,ugm-3
06-01-2018,10:00,,,,3.96379,R,ugm-3,14.07588,R,ugm-3,20.15360,R,ugm-3
06-01-2018,11:00,,,,4.23252,R,ugm-3,12.93097,R,ugm-3,19.42074,R,ugm-3
06-01-2018,12:00,,,,3.72865,R,ugm-3,11.45264,R,ugm-3,17.16982,R,ugm-3
06-01-2018,13:00,,,,7.89399,R,ugm-3,18.83314,R,ugm-3,30.93709,R,ugm-3
06-01-2018,14:00,,,,5.57618,R,ugm-3,17.78053,R,ugm-3,26.33055,R,ugm-3
06-01-2018,15:00,,,,3.93020,R,ugm-3,13.28983,R,ugm-3,19.31605,R,ugm-3
06-01-2018,16:00,,,,4.13175,R,ugm-3,15.23171,R,ugm-3,21.56697,R,ugm-3
06-01-2018,17:00,,,,6.78547,R,ugm-3,22.78377,R,ugm-3,33.18801,R,ugm-3
06-01-2018,18:00,,,,8.06194,R,ugm-3,27.94573,R,ugm-3,40.30720,R,ugm-3
06-01-2018,19:00,,,,1.41084,R,ugm-3,18.72320,R,ugm-3,20.88646,R,ugm-3
06-01-2018,20:00,,,,1.54521,R,ugm-3,17.88901,R,ugm-3,20.25829,R,ugm-3
06-01-2018,21:00,,,,1.81394,R,ugm-3,14.07441,R,ugm-3,16.85574,R,ugm-3
06-01-2018,22:00,,,,1.10852,R,ugm-3,10.49715,R,ugm-3,12.19685,R,ugm-3
06-01-2018,23:00,,,,0.73901,R,ugm-3,11.53484,R,ugm-3,12.66798,R,ugm-3
06-01-2018,24:00,,,,0.97415,R,ugm-3,12.48298,R,ugm-3,13.97665,R,ugm-3
07-01-2018,01:00,,,,1.20931,R,ugm-3,14.35139,R,ugm-3,16.20564,R,ugm-3
07-01-2018,02:00,,,,24.58929,R,ugm-3,38.92446,R,ugm-3,76.62751,R,ugm-3
07-01-2018,03:00,,,,3.19123,R,ugm-3,19.72963,R,ugm-3,24.62279,R,ugm-3
07-01-2018,04:00,,,,8.06206,R,ugm-3,22.63413,R,ugm-3,34.99579,R,ugm-3
07-01-2018,05:00,,,,2.21707,R,ugm-3,15.72250,R,ugm-3,19.12195,R,ugm-3
07-01-2018,06:00,,,,1.41086,R,ugm-3,12.76755,R,ugm-3,14.93084,R,ugm-3
07-01-2018,07:00,,,,3.49356,R,ugm-3,19.21368,R,ugm-3,24.57040,R,ugm-3
07-01-2018,08:00,,,,44.71085,R,ugm-3,64.30258,R,ugm-3,132.85827,R,ugm-3
07-01-2018,09:00,,,,38.16043,R,ugm-3,61.98265,R,ugm-3,120.49449,R,ugm-3
07-01-2018,10:00,,,,90.16073,R,ugm-3,85.14177,R,ugm-3,223.38630,R,ugm-3
07-01-2018,11:00,,,,76.00733,R,ugm-3,81.13786,R,ugm-3,197.68081,R,ugm-3
07-01-2018,12:00,,,,71.24848,R,ugm-3,76.78687,R,ugm-3,186.03301,R,ugm-3
07-01-2018,13:00,,,,120.46065,R,ugm-3,91.75251,R,ugm-3,276.45626,R,ugm-3
07-01-2018,14:00,,,,40.41109,R,ugm-3,65.65657,R,ugm-3,127.61938,R,ugm-3
07-01-2018,15:00,,,,100.50705,R,ugm-3,99.82038,R,ugm-3,253.92903,R,ugm-3
07-01-2018,16:00,,,,24.85803,R,ugm-3,69.64887,R,ugm-3,107.76398,R,ugm-3
07-01-2018,17:00,,,,126.91030,R,ugm-3,98.41808,R,ugm-3,293.01116,R,ugm-3
07-01-2018,18:00,,,,244.98592,R,ugm-3,138.66206,R,ugm-3,514.30190,R,ugm-3
07-01-2018,19:00,,,,260.37103,R,ugm-3,128.01196,R,ugm-3,527.24197,R,ugm-3
07-01-2018,20:00,,,,251.13325,R,ugm-3,120.85407,R,ugm-3,505.91968,R,ugm-3
07-01-2018,21:00,,,,233.76622,R,ugm-3,115.31635,R,ugm-3,473.75289,R,ugm-3
07-01-2018,22:00,,,,252.84643,R,ugm-3,103.50594,R,ugm-3,491.19840,R,ugm-3
07-01-2018,23:00,,,,137.32380,R,ugm-3,83.23677,R,ugm-3,293.79699,R,ugm-3
07-01-2018,24:00,,,,161.37562,R,ugm-3,81.30123,R,ugm-3,328.74039,R,ugm-3
08-01-2018,01:00,,,,135.98213,R,ugm-3,77.48952,R,ugm-3,285.99254,R,ugm-3
08-01-2018,02:00,,,,141.76003,R,ugm-3,64.78527,R,ugm-3,282.14762,R,ugm-3
08-01-2018,03:00,,,,119.99214,R,ugm-3,58.40222,R,ugm-3,242.38759,R,ugm-3
08-01-2018,04:00,,,,123.35138,R,ugm-3,57.13133,R,ugm-3,246.26747,R,ugm-3
08-01-2018,05:00,,,,109.24256,R,ugm-3,50.55678,R,ugm-3,218.05970,R,ugm-3
08-01-2018,06:00,,,,116.39775,R,ugm-3,65.27674,R,ugm-3,243.75079,R,ugm-3
08-01-2018,07:00,,,,300.49542,R,ugm-3,116.82448,R,ugm-3,577.57770,R,ugm-3
08-01-2018,08:00,,,,310.86428,R,ugm-3,128.81897,R,ugm-3,605.47089,R,ugm-3
08-01-2018,09:00,,,,198.79996,R,ugm-3,99.89100,R,ugm-3,404.71335,R,ugm-3
08-01-2018,10:00,,,,275.49146,R,ugm-3,125.80210,R,ugm-3,548.21645,R,ugm-3
08-01-2018,11:00,,,,559.48181,R,ugm-3,182.26208,R,ugm-3,1040.12223,R,ugm-3
08-01-2018,12:00,,,,510.67202,R,ugm-3,174.15719,R,ugm-3,957.17670,R,ugm-3
08-01-2018,13:00,,,,146.02626,R,ugm-3,96.71053,R,ugm-3,320.61435,R,ugm-3
08-01-2018,14:00,,,,57.17430,R,ugm-3,68.36802,R,ugm-3,156.03406,R,ugm-3
08-01-2018,15:00,,,,67.72233,R,ugm-3,71.22699,R,ugm-3,175.06644,R,ugm-3
08-01-2018,16:00,,,,83.64513,R,ugm-3,72.87047,R,ugm-3,201.12455,R,ugm-3
08-01-2018,17:00,,,,66.41222,R,ugm-3,77.37783,R,ugm-3,179.20848,R,ugm-3
08-01-2018,18:00,,,,38.16099,R,ugm-3,50.38607,R,ugm-3,108.89877,R,ugm-3
08-01-2018,19:00,,,,30.87144,R,ugm-3,46.35830,R,ugm-3,93.69384,R,ugm-3
08-01-2018,20:00,,,,24.95917,R,ugm-3,41.26733,R,ugm-3,79.53752,R,ugm-3
08-01-2018,21:00,,,,20.25623,R,ugm-3,42.23914,R,ugm-3,73.29826,R,ugm-3
08-01-2018,22:00,,,,72.35808,R,ugm-3,86.08744,R,ugm-3,197.03495,R,ugm-3
08-01-2018,23:00,,,,64.59823,R,ugm-3,81.62730,R,ugm-3,180.67654,R,ugm-3
08-01-2018,24:00,,,,14.31037,R,ugm-3,33.73925,R,ugm-3,55.68151,R,ugm-3
09-01-2018,01:00,,,,9.54039,R,ugm-3,27.55965,R,ugm-3,42.18805,R,ugm-3
09-01-2018,02:00,,,,4.70301,R,ugm-3,14.12772,R,ugm-3,21.33890,R,ugm-3
09-01-2018,03:00,,,,3.96396,R,ugm-3,13.96657,R,ugm-3,20.04457,R,ugm-3
09-01-2018,04:00,,,,7.45763,R,ugm-3,14.95889,R,ugm-3,26.39377,R,ugm-3
09-01-2018,05:00,,,,8.37583,R,ugm-3,19.06063,R,ugm-3,31.90340,R,ugm-3
09-01-2018,06:00,,,,15.62071,R,ugm-3,26.84215,R,ugm-3,50.79357,R,ugm-3
09-01-2018,07:00,,,,55.56269,R,ugm-3,51.86374,R,ugm-3,137.05868,R,ugm-3
09-01-2018,08:00,,,,103.53338,R,ugm-3,78.06030,R,ugm-3,236.80927,R,ugm-3
09-01-2018,09:00,,,,122.64775,R,ugm-3,92.88155,R,ugm-3,280.93881,R,ugm-3
09-01-2018,10:00,,,,99.03193,R,ugm-3,73.99564,R,ugm-3,225.84248,R,ugm-3
09-01-2018,11:00,,,,92.11179,R,ugm-3,75.63355,R,ugm-3,216.86965,R,ugm-3
09-01-2018,12:00,,,,72.99741,R,ugm-3,67.21397,R,ugm-3,179.14178,R,ugm-3
09-01-2018,13:00,,,,63.02032,R,ugm-3,50.92341,R,ugm-3,147.55322,R,ugm-3
09-01-2018,14:00,,,,68.09285,R,ugm-3,51.75116,R,ugm-3,156.15874,R,ugm-3
09-01-2018,15:00,,,,72.62789,R,ugm-3,62.48082,R,ugm-3,173.84204,R,ugm-3
09-01-2018,16:00,,,,79.74959,R,ugm-3,63.78718,R,ugm-3,186.06817,R,ugm-3
09-01-2018,17:00,,,,103.53338,R,ugm-3,78.74245,R,ugm-3,237.49141,R,ugm-3
09-01-2018,18:00,,,,71.41855,R,ugm-3,67.27360,R,ugm-3,176.78051,R,ugm-3
09-01-2018,19:00,,,,51.90106,R,ugm-3,50.91908,R,ugm-3,130.49959,R,ugm-3
09-01-2018,20:00,,,,36.98580,R,ugm-3,53.37694,R,ugm-3,110.08771,R,ugm-3
09-01-2018,21:00,,,,35.77646,R,ugm-3,49.09194,R,ugm-3,103.94841,R,ugm-3
09-01-2018,22:00,,,,38.32952,R,ugm-3,49.53253,R,ugm-3,108.30364,R,ugm-3
09-01-2018,23:00,,,,37.48970,R,ugm-3,43.31665,R,ugm-3,100.80005,R,ugm-3
09-01-2018,24:00,,,,17.70347,R,ugm-3,39.23302,R,ugm-3,66.37796,R,ugm-3
10-01-2018,01:00,,,,15.04985,R,ugm-3,37.14061,R,ugm-3,60.21673,R,ugm-3
10-01-2018,02:00,,,,15.81130,R,ugm-3,36.95334,R,ugm-3,61.19700,R,ugm-3
10-01-2018,03:00,,,,17.50217,R,ugm-3,36.33876,R,ugm-3,63.17505,R,ugm-3
10-01-2018,04:00,,,,20.32402,R,ugm-3,37.00088,R,ugm-3,68.16394,R,ugm-3
10-01-2018,05:00,,,,21.09667,R,ugm-3,37.60166,R,ugm-3,69.94943,R,ugm-3
10-01-2018,06:00,,,,45.25033,R,ugm-3,45.51905,R,ugm-3,114.90192,R,ugm-3
10-01-2018,07:00,,,,145.42590,R,ugm-3,71.93866,R,ugm-3,294.92192,R,ugm-3
10-01-2018,08:00,,,,267.40359,R,ugm-3,109.77627,R,ugm-3,519.78939,R,ugm-3
10-01-2018,09:00,,,,249.26314,R,ugm-3,110.49371,R,ugm-3,492.69186,R,ugm-3
10-01-2018,10:00,,,,208.81667,R,ugm-3,92.05842,R,ugm-3,412.23951,R,ugm-3
10-01-2018,11:00,,,,136.35567,R,ugm-3,72.13983,R,ugm-3,281.21562,R,ugm-3
10-01-2018,12:00,,,,101.31774,R,ugm-3,53.49881,R,ugm-3,208.85052,R,ugm-3
10-01-2018,13:00,,,,95.27093,R,ugm-3,51.89995,R,ugm-3,197.98000,R,ugm-3
10-01-2018,14:00,,,,120.16365,R,ugm-3,61.04728,R,ugm-3,245.29564,R,ugm-3
10-01-2018,15:00,,,,102.45992,R,ugm-3,59.62469,R,ugm-3,216.72770,R,ugm-3
10-01-2018,16:00,,,,67.62355,R,ugm-3,48.49928,R,ugm-3,152.18728,R,ugm-3
10-01-2018,17:00,,,,51.39793,R,ugm-3,45.75555,R,ugm-3,124.56460,R,ugm-3
10-01-2018,18:00,,,,54.58930,R,ugm-3,56.09141,R,ugm-3,139.79383,R,ugm-3
10-01-2018,19:00,,,,30.20048,R,ugm-3,53.47096,R,ugm-3,99.77772,R,ugm-3
10-01-2018,20:00,,,,20.72714,R,ugm-3,48.14603,R,ugm-3,79.92720,R,ugm-3
10-01-2018,21:00,,,,10.44755,R,ugm-3,44.10985,R,ugm-3,60.12920,R,ugm-3
10-01-2018,22:00,,,,6.80827,R,ugm-3,31.85255,R,ugm-3,42.29175,R,ugm-3
10-01-2018,23:00,,,,3.59450,R,ugm-3,24.57938,R,ugm-3,30.09086,R,ugm-3
10-01-2018,24:00,,,,4.87105,R,ugm-3,19.78624,R,ugm-3,27.25507,R,ugm-3
11-01-2018,01:00,,,,1.97084,R,ugm-3,16.03857,R,ugm-3,19.06048,R,ugm-3
11-01-2018,02:00,,,,1.11980,R,ugm-3,12.22799,R,ugm-3,13.94499,R,ugm-3
11-01-2018,03:00,,,,1.07501,R,ugm-3,11.64847,R,ugm-3,13.29679,R,ugm-3
11-01-2018,04:00,,,,2.85548,R,ugm-3,13.33319,R,ugm-3,17.71153,R,ugm-3
11-01-2018,05:00,,,,1.88126,R,ugm-3,13.93352,R,ugm-3,16.81807,R,ugm-3
11-01-2018,06:00,,,,1.54532,R,ugm-3,15.28952,R,ugm-3,17.65898,R,ugm-3
11-01-2018,07:00,,,,41.52207,R,ugm-3,42.42772,R,ugm-3,106.09402,R,ugm-3
11-01-2018,08:00,,,,74.67927,R,ugm-3,61.61016,R,ugm-3,176.11677,R,ugm-3
11-01-2018,09:00,,,,27.71498,R,ugm-3,46.74520,R,ugm-3,89.24091,R,ugm-3
11-01-2018,10:00,,,,22.07120,R,ugm-3,41.41885,R,ugm-3,75.26088,R,ugm-3
11-01-2018,11:00,,,,33.25797,R,ugm-3,45.60397,R,ugm-3,96.59881,R,ugm-3
11-01-2018,12:00,,,,31.64547,R,ugm-3,38.19583,R,ugm-3,86.71820,R,ugm-3
11-01-2018,13:00,,,,15.35242,R,ugm-3,32.74795,R,ugm-3,56.28799,R,ugm-3
11-01-2018,14:00,,,,4.70315,R,ugm-3,20.06542,R,ugm-3,27.27681,R,ugm-3
11-01-2018,15:00,,,,4.53518,R,ugm-3,18.79883,R,ugm-3,25.75268,R,ugm-3
11-01-2018,16:00,,,,6.38284,R,ugm-3,24.11204,R,ugm-3,33.89893,R,ugm-3
11-01-2018,17:00,,,,11.11959,R,ugm-3,35.03368,R,ugm-3,52.08347,R,ugm-3
11-01-2018,18:00,,,,8.73442,R,ugm-3,49.14963,R,ugm-3,62.54221,R,ugm-3
11-01-2018,19:00,,,,4.97190,R,ugm-3,32.52968,R,ugm-3,40.15315,R,ugm-3
11-01-2018,20:00,,,,3.86330,R,ugm-3,32.07469,R,ugm-3,37.99834,R,ugm-3
11-01-2018,21:00,,,,4.53518,R,ugm-3,30.67660,R,ugm-3,37.63044,R,ugm-3
11-01-2018,22:00,,,,,,,,,,,,
11-01-2018,23:00,,,,17.73759,R,ugm-3,31.29811,R,ugm-3,58.49536,R,ugm-3
11-01-2018,24:00,,,,45.82210,R,ugm-3,45.83770,R,ugm-3,116.09727,R,ugm-3
12-01-2018,01:00,,,,4.70322,R,ugm-3,25.82028,R,ugm-3,33.03178,R,ugm-3
12-01-2018,02:00,,,,16.17011,R,ugm-3,27.87469,R,ugm-3,52.66851,R,ugm-3
12-01-2018,03:00,,,,6.34934,R,ugm-3,22.29689,R,ugm-3,32.03241,R,ugm-3
12-01-2018,04:00,,,,5.84543,R,ugm-3,26.69884,R,ugm-3,35.66170,R,ugm-3
12-01-2018,05:00,,,,20.89572,R,ugm-3,30.65760,R,ugm-3,62.69726,R,ugm-3
12-01-2018,06:00,,,,67.49117,R,ugm-3,52.20618,R,ugm-3,155.69119,R,ugm-3
12-01-2018,07:00,,,,137.06519,R,ugm-3,74.76171,R,ugm-3,284.92540,R,ugm-3
12-01-2018,08:00,,,,231.59985,R,ugm-3,102.01766,R,ugm-3,457.13247,R,ugm-3
12-01-2018,09:00,,,,229.65137,R,ugm-3,107.89819,R,ugm-3,460.02539,R,ugm-3
12-01-2018,10:00,,,,265.63098,R,ugm-3,115.58528,R,ugm-3,522.88044,R,ugm-3
12-01-2018,11:00,,,,155.87805,R,ugm-3,79.73647,R,ugm-3,318.74615,R,ugm-3
12-01-2018,12:00,,,,121.77973,R,ugm-3,69.79596,R,ugm-3,256.52227,R,ugm-3
12-01-2018,13:00,,,,88.89080,R,ugm-3,59.78941,R,ugm-3,196.08674,R,ugm-3
12-01-2018,14:00,,,,79.98829,R,ugm-3,63.18306,R,ugm-3,185.83006,R,ugm-3
12-01-2018,15:00,,,,79.08124,R,ugm-3,70.93826,R,ugm-3,192.19446,R,ugm-3
12-01-2018,16:00,,,,91.74633,R,ugm-3,90.44152,R,ugm-3,231.11726,R,ugm-3
12-01-2018,17:00,,,,148.85682,R,ugm-3,94.44709,R,ugm-3,322.69103,R,ugm-3
12-01-2018,18:00,,,,173.27996,R,ugm-3,120.95842,R,ugm-3,386.65065,R,ugm-3
12-01-2018,19:00,,,,150.57014,R,ugm-3,108.70412,R,ugm-3,339.57511,R,ugm-3
12-01-2018,20:00,,,,86.90873,R,ugm-3,85.07765,R,ugm-3,218.33585,R,ugm-3
12-01-2018,21:00,,,,66.78568,R,ugm-3,75.69481,R,ugm-3,178.09810,R,ugm-3
12-01-2018,22:00,,,,44.04227,R,ugm-3,67.17390,R,ugm-3,134.70444,R,ugm-3
12-01-2018,23:00,,,,23.48249,R,ugm-3,47.78323,R,ugm-3,83.78921,R,ugm-3
12-01-2018,24:00,,,,31.44437,R,ugm-3,43.62274,R,ugm-3,91.83676,R,ugm-3
13-01-2018,01:00,,,,23.11329,R,ugm-3,36.43162,R,ugm-3,71.87151,R,ugm-3
13-01-2018,02:00,,,,13.66193,R,ugm-3,29.30591,R,ugm-3,50.25391,R,ugm-3
13-01-2018,03:00,,,,13.03482,R,ugm-3,26.33699,R,ugm-3,46.32344,R,ugm-3
13-01-2018,04:00,,,,10.85116,R,ugm-3,25.47401,R,ugm-3,42.11222,R,ugm-3
13-01-2018,05:00,,,,8.90265,R,ugm-3,24.46102,R,ugm-3,38.11155,R,ugm-3
13-01-2018,06:00,,,,7.39088,R,ugm-3,23.51534,R,ugm-3,34.84786,R,ugm-3
13-01-2018,07:00,,,,11.92619,R,ugm-3,27.51046,R,ugm-3,45.79703,R,ugm-3
13-01-2018,08:00,,,,29.39554,R,ugm-3,35.20388,R,ugm-3,80.27641,R,ugm-3
13-01-2018,09:00,,,,34.19961,R,ugm-3,43.94566,R,ugm-3,96.38433,R,ugm-3
13-01-2018,10:00,,,,40.81781,R,ugm-3,49.22150,R,ugm-3,111.80793,R,ugm-3
13-01-2018,11:00,,,,44.84920,R,ugm-3,55.77907,R,ugm-3,124.54688,R,ugm-3
13-01-2018,12:00,,,,38.56695,R,ugm-3,47.14554,R,ugm-3,106.28070,R,ugm-3
13-01-2018,13:00,,,,49.51889,R,ugm-3,52.61963,R,ugm-3,128.54753,R,ugm-3
13-01-2018,14:00,,,,42.43036,R,ugm-3,49.59152,R,ugm-3,114.65050,R,ugm-3
13-01-2018,15:00,,,,55.96911,R,ugm-3,57.99511,R,ugm-3,143.81321,R,ugm-3
13-01-2018,16:00,,,,42.12801,R,ugm-3,52.31865,R,ugm-3,116.91404,R,ugm-3
13-01-2018,17:00,,,,51.90413,R,ugm-3,58.06908,R,ugm-3,137.65430,R,ugm-3
13-01-2018,18:00,,,,68.53360,R,ugm-3,64.20771,R,ugm-3,169.29110,R,ugm-3
13-01-2018,19:00,,,,39.20525,R,ugm-3,52.16781,R,ugm-3,112.28169,R,ugm-3
13-01-2018,20:00,,,,43.57259,R,ugm-3,53.78848,R,ugm-3,120.59885,R,ugm-3
13-01-2018,21:00,,,,39.57480,R,ugm-3,49.81141,R,ugm-3,110.49192,R,ugm-3
13-01-2018,22:00,,,,37.26795,R,ugm-3,46.66322,R,ugm-3,103.80661,R,ugm-3
13-01-2018,23:00,,,,21.46714,R,ugm-3,35.09540,R,ugm-3,68.01123,R,ugm-3
13-01-2018,24:00,,,,19.55224,R,ugm-3,33.45185,R,ugm-3,63.43152,R,ugm-3
14-01-2018,01:00,,,,21.94900,R,ugm-3,37.22041,R,ugm-3,70.87507,R,ugm-3
14-01-2018,02:00,,,,15.31950,R,ugm-3,27.50676,R,ugm-3,50.99633,R,ugm-3
14-01-2018,03:00,,,,12.29592,R,ugm-3,23.60835,R,ugm-3,42.46182,R,ugm-3
14-01-2018,04:00,,,,11.12008,R,ugm-3,23.14594,R,ugm-3,40.19649,R,ugm-3
14-01-2018,05:00,,,,6.62949,R,ugm-3,17.72134,R,ugm-3,27.88643,R,ugm-3
14-01-2018,06:00,,,,4.30021,R,ugm-3,15.32221,R,ugm-3,21.91578,R,ugm-3
14-01-2018,07:00,,,,6.01358,R,ugm-3,17.17307,R,ugm-3,26.39376,R,ugm-3
14-01-2018,08:00,,,,9.07076,R,ugm-3,20.49315,R,ugm-3,34.40145,R,ugm-3
14-01-2018,09:00,,,,9.33952,R,ugm-3,22.34638,R,ugm-3,36.66679,R,ugm-3
14-01-2018,10:00,,,,14.11007,R,ugm-3,25.35735,R,ugm-3,46.99249,R,ugm-3
14-01-2018,11:00,,,,23.95352,R,ugm-3,28.22889,R,ugm-3,64.95710,R,ugm-3
14-01-2018,12:00,,,,31.24372,R,ugm-3,40.33625,R,ugm-3,88.24262,R,ugm-3
14-01-2018,13:00,,,,28.92564,R,ugm-3,40.62430,R,ugm-3,84.97633,R,ugm-3
14-01-2018,14:00,,,,32.38597,R,ugm-3,41.74576,R,ugm-3,91.40355,R,ugm-3
14-01-2018,15:00,,,,29.39598,R,ugm-3,39.90313,R,ugm-3,84.97633,R,ugm-3
14-01-2018,16:00,,,,38.36595,R,ugm-3,47.59100,R,ugm-3,106.41797,R,ugm-3
14-01-2018,17:00,,,,36.14865,R,ugm-3,48.30402,R,ugm-3,103.73118,R,ugm-3
14-01-2018,18:00,,,,33.39383,R,ugm-3,43.67742,R,ugm-3,94.88057,R,ugm-3
14-01-2018,19:00,,,,22.07218,R,ugm-3,40.96513,R,ugm-3,74.80867,R,ugm-3
14-01-2018,20:00,,,,14.27805,R,ugm-3,27.83926,R,ugm-3,49.73196,R,ugm-3